Flag Weather past 2 weeks in Langesund, Norway

Now
35 °F

Chilly.


Feels Like: 29 °F
Forecast: 35 / 38 °F
Wind: 7 mph from Northeast

Location: Jomfruland Fyr

Current Time: Nov 27, 2014 at 3:47:50 AM

Latest Report: Nov 27, 2014 at 3:00 AM


Visibility: N/A

Pressure: 30.21 "Hg

Humidity: 94%

Dew point: 33 °F

Location of LangesundLocation

Historic Weather in Langesund — Graph

°F

Langesund temperature yesterday

Maximum temperature yesterday: 40 °F (at 1:00 PM)
Minimum temperature yesterday: 34 °F (at 2:00 AM)
Average temperature yesterday: 37 °F

Past Weeks' High & Low Weather Summary

 TemperatureHumidityPressure
High49 °F (Nov 24, 2:00 AM)96% (Nov 15, 5:00 AM)30.50 "Hg (Nov 15, 5:00 AM)
Low34 °F (Nov 26, 2:00 AM)60% (Nov 24, 6:00 PM)29.68 "Hg (Nov 24, 6:00 AM)
Average42 °F86%30.18 "Hg
* Reported Nov 12 2:00 AM — Nov 27 2:00 AM, Langesund, Weather by CustomWeather, © 2014

Note: Actual official high and low records may vary slightly from our data, if they occured in-between our weather recording intervals... More about our weather records

Advertising

Langesund weather history for previous 24 hours

 ConditionsComfort  
Time TempWeatherWind HumidityBarometerVisibility
2:00 AM
Nov 27
35 °FChilly.6 mph92%30.22 "HgN/A
1:00 AM35 °FChilly.8 mph89%30.23 "HgN/A
12:00 AM36 °FChilly.6 mph89%30.24 "HgN/A
11:00 PM
Nov 26
36 °FChilly.5 mph87%30.25 "HgN/A
10:00 PM36 °FChilly.6 mph85%30.26 "HgN/A
9:00 PM37 °FChilly.5 mph84%30.26 "HgN/A
8:00 PM37 °FChilly.5 mph82%30.26 "HgN/A
7:00 PM37 °FChilly.3 mph82%30.26 "HgN/A
6:00 PM37 °FChilly.5 mph81%30.26 "HgN/A
5:00 PM37 °FChilly.5 mph77%30.26 "HgN/A
4:00 PM38 °FChilly.5 mph77%30.27 "HgN/A
3:00 PM39 °FChilly.3 mph77%30.27 "HgN/A
2:00 PM40 °FChilly.5 mph73%30.29 "HgN/A
1:00 PM40 °FChilly.5 mph73%30.29 "HgN/A
12:00 PM40 °FChilly.5 mph77%30.30 "HgN/A
11:00 AM38 °FChilly.5 mph78%30.31 "HgN/A
10:00 AM38 °FChilly.2 mph81%30.32 "HgN/A
9:00 AM36 °FChilly.3 mph86%30.31 "HgN/A
8:00 AM34 °FChilly.1 mph88%30.30 "HgN/A
7:00 AM35 °FChilly.1 mph86%30.29 "HgN/A
6:00 AM36 °FChilly.1 mph86%30.29 "HgN/A
5:00 AM36 °FChilly.2 mph90%30.29 "HgN/A
4:00 AM35 °FChilly.1 mph93%30.29 "HgN/A
3:00 AM35 °FChilly.1 mph94%30.28 "HgN/A
Weather by CustomWeather, © 2014

See weather overviewHow to use our weather pages